Location: Newark
(25.4800°N, 85.7200°E)
Time: 20:07:37
(UTC+00:00)

Explorer 11/Cluster Stage 4 - Pass Details

Date: 26 August 2019
Orbit: 467 x 1259 km, 28.8° (Epoch: 13 October)

Event Time Altitude Azimuth Distance (km) Brightness Sun altitude
Rises 07:32:14 0° 284° (WNW) 4,195 10.5 67.1°
Reaches altitude 10° 07:35:11 10° 284° (WNW) 3,232 10.1 66.5°
Maximum altitude 07:43:30 87° 197° (SSW) 1,207 9.1 65.0°
Drops below altitude 10° 07:50:58 10° 108° (ESE) 2,923 9.4 63.6°
Sets 07:53:31 0° 108° (ESE) 3,777 9.9 63.1°
